<?xml version="1.0" encoding="UTF-8" standalone="no" ?>
<gpx xmlns="http://www.topografix.com/GPX/1/1" xmlns:xsi="http://www.w3.org/2001/XMLSchema-instance" xsi:schemaLocation="http://www.topografix.com/GPX/1/1 http://www.topografix.com/GPX/1/1/gpx.xsd" version="1.1" creator="VisuGPX - https://www.visugpx.com">
  <metadata>
    <name>GTJ avec variantes GR5 - Labergement Sainte Marie &gt;Bellegarde</name>
  </metadata>
  <trk>
    <name><![CDATA[GTJ avec variantes GR5 - Labergement Sainte Marie >Bellegarde_6]]></name>
    <trkseg>
      <trkpt lat="46.7103" lon="6.19227">
        <ele>943.784</ele>
        <time>2014-06-13T07:07:09Z</time>
      </trkpt>
      <trkpt lat="46.70948" lon="6.19169">
        <ele>943.739</ele>
        <time>2014-06-13T07:08:28Z</time>
      </trkpt>
      <trkpt lat="46.70767" lon="6.18995">
        <ele>944.666</ele>
        <time>2014-06-13T07:11:36Z</time>
      </trkpt>
      <trkpt lat="46.70493" lon="6.18864">
        <ele>946.151</ele>
        <time>2014-06-13T07:15:17Z</time>
      </trkpt>
      <trkpt lat="46.70096" lon="6.19444">
        <ele>953.86</ele>
        <time>2014-06-13T07:26:48Z</time>
      </trkpt>
      <trkpt lat="46.7011" lon="6.19416">
        <ele>950.492</ele>
        <time>2014-06-13T07:27:16Z</time>
      </trkpt>
      <trkpt lat="46.70079" lon="6.19355">
        <ele>950.435</ele>
        <time>2014-06-13T07:28:14Z</time>
      </trkpt>
      <trkpt lat="46.70068" lon="6.19281">
        <ele>949.986</ele>
        <time>2014-06-13T07:28:56Z</time>
      </trkpt>
      <trkpt lat="46.69919" lon="6.18946">
        <ele>951.414</ele>
        <time>2014-06-13T07:32:34Z</time>
      </trkpt>
      <trkpt lat="46.69746" lon="6.18763">
        <ele>954.707</ele>
        <time>2014-06-13T07:35:31Z</time>
      </trkpt>
      <trkpt lat="46.69639" lon="6.18615">
        <ele>956.24</ele>
        <time>2014-06-13T07:37:40Z</time>
      </trkpt>
      <trkpt lat="46.69455" lon="6.18524">
        <ele>955.794</ele>
        <time>2014-06-13T07:40:20Z</time>
      </trkpt>
      <trkpt lat="46.69462" lon="6.18476">
        <ele>957.649</ele>
        <time>2014-06-13T07:40:53Z</time>
      </trkpt>
      <trkpt lat="46.69538" lon="6.18406">
        <ele>960.096</ele>
        <time>2014-06-13T07:42:11Z</time>
      </trkpt>
      <trkpt lat="46.69558" lon="6.1837">
        <ele>960.081</ele>
        <time>2014-06-13T07:42:36Z</time>
      </trkpt>
      <trkpt lat="46.69553" lon="6.18322">
        <ele>961.57</ele>
        <time>2014-06-13T07:43:13Z</time>
      </trkpt>
      <trkpt lat="46.69529" lon="6.18272">
        <ele>962.492</ele>
        <time>2014-06-13T07:43:50Z</time>
      </trkpt>
      <trkpt lat="46.69532" lon="6.18208">
        <ele>962.466</ele>
        <time>2014-06-13T07:44:31Z</time>
      </trkpt>
      <trkpt lat="46.69517" lon="6.1814">
        <ele>961.929</ele>
        <time>2014-06-13T07:45:07Z</time>
      </trkpt>
      <trkpt lat="46.69448" lon="6.18085">
        <ele>965.821</ele>
        <time>2014-06-13T07:46:30Z</time>
      </trkpt>
      <trkpt lat="46.6938" lon="6.18056">
        <ele>974.407</ele>
        <time>2014-06-13T07:47:53Z</time>
      </trkpt>
      <trkpt lat="46.69252" lon="6.17881">
        <ele>977.393</ele>
        <time>2014-06-13T07:50:32Z</time>
      </trkpt>
      <trkpt lat="46.69267" lon="6.1783">
        <ele>975.987</ele>
        <time>2014-06-13T07:51:01Z</time>
      </trkpt>
      <trkpt lat="46.69313" lon="6.17786">
        <ele>977.812</ele>
        <time>2014-06-13T07:51:48Z</time>
      </trkpt>
      <trkpt lat="46.6932" lon="6.17705">
        <ele>980.759</ele>
        <time>2014-06-13T07:52:42Z</time>
      </trkpt>
      <trkpt lat="46.69395" lon="6.17704">
        <ele>983.114</ele>
        <time>2014-06-13T07:53:45Z</time>
      </trkpt>
      <trkpt lat="46.69434" lon="6.17722">
        <ele>985.593</ele>
        <time>2014-06-13T07:54:25Z</time>
      </trkpt>
      <trkpt lat="46.69478" lon="6.17687">
        <ele>984.115</ele>
        <time>2014-06-13T07:55:05Z</time>
      </trkpt>
      <trkpt lat="46.69479" lon="6.1762">
        <ele>983.128</ele>
        <time>2014-06-13T07:55:42Z</time>
      </trkpt>
      <trkpt lat="46.69462" lon="6.1758">
        <ele>982.189</ele>
        <time>2014-06-13T07:56:18Z</time>
      </trkpt>
      <trkpt lat="46.6948" lon="6.17533">
        <ele>980.217</ele>
        <time>2014-06-13T07:56:56Z</time>
      </trkpt>
      <trkpt lat="46.69474" lon="6.17443">
        <ele>977.807</ele>
        <time>2014-06-13T07:57:45Z</time>
      </trkpt>
      <trkpt lat="46.69424" lon="6.17348">
        <ele>974.479</ele>
        <time>2014-06-13T07:58:50Z</time>
      </trkpt>
      <trkpt lat="46.69415" lon="6.17298">
        <ele>973.083</ele>
        <time>2014-06-13T07:59:34Z</time>
      </trkpt>
      <trkpt lat="46.69492" lon="6.17217">
        <ele>974.038</ele>
        <time>2014-06-13T08:01:10Z</time>
      </trkpt>
      <trkpt lat="46.6947" lon="6.17121">
        <ele>978.845</ele>
        <time>2014-06-13T08:02:12Z</time>
      </trkpt>
      <trkpt lat="46.695" lon="6.17077">
        <ele>980.23</ele>
        <time>2014-06-13T08:02:54Z</time>
      </trkpt>
      <trkpt lat="46.69496" lon="6.17054">
        <ele>981.639</ele>
        <time>2014-06-13T08:03:09Z</time>
      </trkpt>
      <trkpt lat="46.69356" lon="6.1662">
        <ele>986.991</ele>
        <time>2014-06-13T08:07:34Z</time>
      </trkpt>
      <trkpt lat="46.69239" lon="6.16336">
        <ele>986.935</ele>
        <time>2014-06-13T08:10:28Z</time>
      </trkpt>
      <trkpt lat="46.69213" lon="6.16242">
        <ele>988.986</ele>
        <time>2014-06-13T08:11:23Z</time>
      </trkpt>
      <trkpt lat="46.69143" lon="6.16096">
        <ele>988.914</ele>
        <time>2014-06-13T08:13:01Z</time>
      </trkpt>
      <trkpt lat="46.69019" lon="6.15708">
        <ele>992.207</ele>
        <time>2014-06-13T08:16:40Z</time>
      </trkpt>
      <trkpt lat="46.68996" lon="6.157">
        <ele>990.83</ele>
        <time>2014-06-13T08:16:59Z</time>
      </trkpt>
      <trkpt lat="46.68845" lon="6.15856">
        <ele>993.294</ele>
        <time>2014-06-13T08:19:35Z</time>
      </trkpt>
      <trkpt lat="46.68819" lon="6.15865">
        <ele>992.299</ele>
        <time>2014-06-13T08:19:56Z</time>
      </trkpt>
      <trkpt lat="46.68713" lon="6.15637">
        <ele>978.866</ele>
        <time>2014-06-13T08:22:33Z</time>
      </trkpt>
      <trkpt lat="46.68571" lon="6.15026">
        <ele>983.191</ele>
        <time>2014-06-13T08:28:31Z</time>
      </trkpt>
      <trkpt lat="46.68469" lon="6.14793">
        <ele>986.53</ele>
        <time>2014-06-13T08:31:25Z</time>
      </trkpt>
      <trkpt lat="46.68352" lon="6.14384">
        <ele>990.312</ele>
        <time>2014-06-13T08:35:30Z</time>
      </trkpt>
      <trkpt lat="46.68291" lon="6.13972">
        <ele>1007.669</ele>
        <time>2014-06-13T08:40:33Z</time>
      </trkpt>
    </trkseg>
  </trk>
</gpx>